FW1964 Weather Reports


time (UTC)temp
F
wind
direction
speed
knots
gust
knots
rain 1hr
in
rain 24hr
in
rain mn
in
humidity
%
barometer
mb
20260503193008 61 250 1.7 3.5 0.00 0.00 0.00 50 1014.9
20260503191503 60 180 2.6 6.1 0.00 0.00 0.00 50 1015.0
20260503190004 60 196 0.9 6.1 0.00 0.00 0.00 51 1015.0
20260503184559 59 124 1.7 6.1 0.00 0.00 0.00 52 1015.1
20260503183057 59 227 1.7 6.1 0.00 0.00 0.00 54 1015.1
20260503181604 59 238 4.3 7.8 0.00 0.00 0.00 54 1015.0
20260503180059 59 232 1.7 8.7 0.00 0.00 0.00 55 1015.0
20260503174554 58 146 0.0 2.6 0.00 0.00 0.00 56 1015.1
20260503173058 58 182 0.9 5.2 0.00 0.00 0.00 56 1015.0
20260503171550 58 187 2.6 5.2 0.00 0.00 0.00 56 1014.9
20260503081502 55 80 0.0 2.6 0.00 0.00 0.00 62 1013.3
20260503071604 55 49 0.0 0.9 0.00 0.00 0.00 62 1013.5
20260503070103 55 83 0.0 0.0 0.00 0.00 0.00 62 1013.5
20260503060107 55 184 0.0 1.7 0.00 0.00 0.00 61 1013.5
20260503054556 55 188 0.0 1.7 0.00 0.00 0.00 61 1013.7
20260503053053 55 128 0.0 3.5 0.00 0.00 0.00 61 1013.7
20260503051551 55 113 0.0 4.3 0.00 0.00 0.00 61 1013.9
20260503050052 55 137 0.9 3.5 0.00 0.00 0.00 61 1014.0
20260503044556 55 165 0.9 5.2 0.00 0.00 0.00 61 1014.0
20260503043056 56 205 1.7 7.0 0.00 0.00 0.00 61 1013.9
20260503041549 56 180 0.0 5.2 0.00 0.00 0.00 61 1013.8
20260503040049 56 178 0.9 4.3 0.00 0.00 0.00 60 1013.6
20260503034550 56 196 0.9 3.5 0.00 0.00 0.00 60 1013.4
20260503033100 56 209 0.0 4.3 0.00 0.00 0.00 60 1013.2
20260503031547 56 173 0.9 4.3 0.00 0.00 0.00 60 1013.0
20260503030047 56 215 2.6 7.8 0.00 0.00 0.00 60 1013.0
20260503024545 56 183 2.6 7.0 0.00 0.00 0.00 59 1012.9
20260503023057 56 223 3.5 7.0 0.00 0.00 0.00 59 1012.9
20260503021549 57 211 2.6 7.0 0.00 0.00 0.00 59 1012.9
20260503020043 57 261 1.7 6.1 0.00 0.00 0.00 59 1012.9
20260503014542 57 235 2.6 5.2 0.00 0.00 0.00 59 1012.9
20260503013042 57 214 0.9 4.3 0.00 0.00 0.00 60 1013.1
20260503011554 57 197 2.6 8.7 0.00 0.00 0.00 60 1013.1
20260503010051 57 206 3.5 8.7 0.00 0.00 0.00 61 1013.0
20260503004540 57 213 4.3 8.7 0.00 0.00 0.00 61 1013.0
20260503003049 57 246 3.5 9.6 0.00 0.00 0.00 61 1012.9
20260503001537 58 236 2.6 7.0 0.00 0.00 0.00 60 1013.1
20260503000049 58 145 1.7 7.8 0.00 0.00 0.00 60 1013.1
20260502234537 58 229 2.6 9.6 0.00 0.00 0.00 59 1013.2
20260502233037 59 221 1.7 9.6 0.00 0.00 0.00 59 1013.1
20260502231532 59 205 3.5 7.8 0.00 0.00 0.00 59 1013.2
20260502230032 59 242 4.3 8.7 0.00 0.00 0.00 59 1013.4
20260502224530 60 180 4.3 9.6 0.00 0.00 0.00 58 1013.7
20260502223027 61 254 4.3 10.4 0.00 0.00 0.00 57 1013.9
20260502221526 62 240 4.3 9.6 0.00 0.00 0.00 56 1014.0
20260502220025 62 223 5.2 8.7 0.00 0.00 0.00 56 1014.2
20260502214524 63 191 5.2 9.6 0.00 0.00 0.00 54 1014.3
20260502213028 63 187 5.2 7.8 0.00 0.00 0.00 54 1014.4
20260502211521 62 273 4.3 8.7 0.00 0.00 0.00 55 1014.7
20260502210019 61 230 2.6 6.1 0.00 0.00 0.00 57 1014.7
20260502204524 62 283 3.5 7.8 0.00 0.00 0.00 56 1014.8
20260502203020 62 198 4.3 9.6 0.00 0.00 0.00 56 1014.9
20260502201518 62 190 1.7 5.2 0.00 0.00 0.00 53 1015.2
20260502200015 62 227 2.6 7.0 0.00 0.00 0.00 53 1015.4
20260502194512 61 96 2.6 6.1 0.00 0.00 0.00 55 1015.7